Meath Environmental Platform

Observations for Trim Market St

Time AQI Temp °C Hum % Pres Pa CO μg/m³ H₂S μg/m³ NO μg/m³ NO₂ μg/m³ O₃ μg/m³ SO₂ μg/m³ PM1 μg/m³ PM2.5 μg/m³ PM10 μg/m³
Tuesday 18 August 2026
23:52 2 15.2 84 2,147,483,647 0.27 0 2.36 10.16 55.67 0 2.85 3.31 6.99
23:51 2 15.2 84 2,147,483,647 0.27 0 2.34 7.93 45.79 0 2.14 3.31 8.07
23:50 2 15.2 84 2,147,483,647 0.27 0 2.33 7.35 43.95 0 1.43 2.85 5.91
23:49 2 15.2 84 2,147,483,647 0.27 0 2.34 6.31 40.97 0 2.85 4.24 7.53
23:48 2 15.2 84 2,147,483,647 0.3 0 2.32 10.21 55.69 0 1.43 3.32 6.45
23:47 2 15.2 84 2,147,483,647 0.42 0 2.35 7.98 48.84 0 2.14 3.32 6.99
23:46 2 15.2 84 2,147,483,647 0.43 0 2.34 9.37 50.59 0 3.56 3.78 8.62
23:45 2 15.2 84 2,147,483,647 0.32 0 2.32 7.82 49.31 0 2.14 2.85 5.9
23:44 2 15.2 84 2,147,483,647 0.26 0 2.32 7.6 44.69 0 0.71 0.99 5.36
23:43 2 15.2 84 2,147,483,647 0.28 0 2.34 9.37 45.24 0 1.43 2.85 5.9
23:42 2 15.2 84 2,147,483,647 0.28 0 2.32 7.11 41.75 0 1.43 2.85 5.9
23:41 2 15.2 84 2,147,483,647 0.28 0 2.32 6.81 52.64 0 1.43 2.86 6.99
23:36 2 15.3 84 2,147,483,647 0.27 0 2.3 6.8 48.5 0 2.14 3.79 7.53
23:30 2 15.3 84 2,147,483,647 0.28 0 2.34 10.37 55.75 0 2.14 3.79 7.53
23:29 2 15.3 84 2,147,483,647 0.26 0 2.33 10.37 47.72 0 2.14 3.79 8.08
23:28 2 15.3 84 2,147,483,647 0.27 0 2.32 7.2 45.85 0 2.14 3.79 8.08
23:24 2 15.3 84 2,147,483,647 0.39 0 2.35 10.06 55.23 0 2.14 3.8 6.99
23:23 2 15.3 84 2,147,483,647 0.33 0 2.34 7.6 46.51 0 2.85 3.8 6.99
23:22 2 15.3 84 2,147,483,647 0.28 0 2.34 7.1 45.48 0 3.56 3.8 7.53
23:21 2 15.3 84 2,147,483,647 0.27 0 2.38 7.15 48.92 0 2.14 3.33 6.44